THORAD DELTA 1 DEB, 8173

Orbit data source: Space-Track

THORAD DELTA 1 DEB, 8173 is space debris in SSO originally from a launch on Fri, 15 Nov 1974 UTC launched from the Air Force Western Test Range (AFWTR). Debris objects in space refer to the collection of defunct objects orbiting the Earth. Examples of debris include non-operational satellites, rocket bodies, and fragments generated from explosions, collisions, or faulty payload assembly.

Loading next visibility...
Identifier
8173, 1974-089AP
Orbit
SSO
Country
Flag of USUS
Related business
Manufacturer
Unknown
Mission
Spacecraft
Bus & Motor
Unknown
Mass
Unknown
Launch date (UTC)
1974-11-15 (52 years ago)
Launch vehicle
Unknown
Launch site
Air Force Western Test Range (AFWTR)
Object type
Payload
Rocket body
Debris
Shape & HBR
Unknown shape, 0.1 m
Radar Cross Section
Medium (>0.1 m² and <1 m²)

Expand to show TLE details & history
Last TLE update: 3 days ago

TLE from 3 days ago
0 THORAD DELTA 1 DEB
1 08173U 74089AP  26170.45192130  .00000048  00000-0  58529-3 0  9992
2 08173 101.9955 152.9882 0108949 121.9905  29.3199 12.51897029355273
Epoch: 2026-06-19T10:50Z
TLE epoch observation values (Epoch: 2026-06-19T10:50:46.000Z)
Latitude
27.4457°
Longitude
-91.08018°
Altitude
1,385.42 km
Speed
7.203 km/s
True Right ascension
22h 37m 10s
True Declination
27° 18' 60"
Sunlit
Object was in daylight at epoch
Visualization orbit readout
Latitude
Unknown
Longitude
Unknown
Altitude
Unknown
Speed
Unknown
Apparent Right ascension
Unknown
Apparent Declination
Unknown
Sunlit
N/A
Visualization observer readout
Local Sidereal Time
00:50:09
Azimuth
Unknown
Elevation
Unknown
Doppler factor
Unknown
Orbital elements
Apogee altitude
1,539.46 km
Perigee altitude
1,368.797 km
Semi-major axis
7,832.266 km
Eccentricity
0.01089
Inclination
101.9955°
RAAN
152.9882°
Arg. of periapsis
121.9905°
True anomaly
29.93859°
Mean anomaly
29.3199°
Eccentric anomaly
29.6285°
Mean motion
3.13121 °/min
Orbital period
114.97 mins
BSTAR
0.00058529

Documentation

Showing up to 5 results
|